Home > Time Zones > World Clock > Weather > Iran > Gorgan > Past weeks

Flag for Iran Weather past 2 weeks in Gorgan, Iran

Now
90 °F

Sunny.


Feels Like: 93 °F
Forecast: 77 / 99 °F
Wind: 5 mph from East

Location: Gorgan Airport

Current Time: Jul 25, 2014 at 11:42:29 AM

Latest Report: Jul 25, 2014 at 11:00 AM


Visibility: 10 mi

Pressure: 29.71 "Hg

Humidity: 49%

Dew point: 68 °F

Location of GorganLocation

Historic Weather in Gorgan — Graph

°F

Gorgan temperature yesterday

Maximum temperature yesterday: 95 °F (at 4:30 PM)
Minimum temperature yesterday: 70 °F (at 4:30 AM)
Average temperature yesterday: 82 °F

Past Weeks' High & Low Weather Summary

 TemperatureHumidityPressure
High99 °F (Jul 18, 4:30 PM)94% (Jul 13, 2:30 AM)29.92 "Hg (Jul 13, 2:30 AM)
Low70 °F (Jul 23, 4:30 AM)32% (Jul 23, 1:30 PM)29.53 "Hg (Jul 19, 2:30 AM)
Average83 °F70%29.77 "Hg
* Reported Jul 10 10:30 AM — Jul 25 10:30 AM, Gorgan, Weather by CustomWeather, © 2014

Note: Actual official high and low records may vary slightly from our data, if they occured in-between our weather recording intervals... More about our weather records

Advertising

Gorgan weather history for previous 24 hours

 ConditionsComfort  
Time TempWeatherWind HumidityBarometerVisibility
10:30 AM
Jul 25
88 °FSunny.7 mph52%29.74 "Hg10 mi
9:30 AM84 °FScattered clouds.7 mph55%29.74 "HgN/A
8:30 AM82 °FPassing clouds.5 mph70%29.74 "HgN/A
7:30 AM77 °FScattered clouds.No wind83%29.71 "HgN/A
6:30 AM72 °FClear.No wind83%29.71 "Hg10 mi
5:30 AM72 °FClear.No wind94%29.68 "Hg10 mi
4:30 AM72 °FClear.No wind94%29.68 "Hg10 mi
3:30 AM73 °FClear.No wind89%29.71 "Hg10 mi
2:30 AM73 °FClear.No wind89%29.71 "Hg10 mi
1:30 AM73 °FClear.No wind83%29.74 "Hg10 mi
12:30 AM75 °FClear.No wind89%29.74 "Hg10 mi
12:00 AM75 °FClear.7 mph89%29.74 "Hg10 mi
11:30 PM
Jul 24
77 °FClear.7 mph79%29.74 "Hg10 mi
11:00 PM75 °FClear.7 mph89%29.74 "Hg10 mi
10:30 PM79 °FClear.7 mph74%29.74 "Hg10 mi
9:30 PM79 °FSunny.7 mph70%29.74 "Hg10 mi
9:00 PM81 °FSunny.9 mph62%29.74 "Hg10 mi
8:30 PM82 °FSunny.12 mph55%29.74 "Hg10 mi
8:00 PM84 °FSunny.12 mph51%29.74 "Hg10 mi
7:30 PM88 °FSunny.12 mph43%29.74 "Hg10 mi
7:00 PM88 °FSunny.16 mph46%29.74 "Hg10 mi
6:30 PM91 °FPassing clouds.12 mph41%29.71 "HgN/A
5:30 PM95 °FPassing clouds.14 mph32%29.71 "HgN/A
4:30 PM95 °FPassing clouds.7 mph32%29.74 "HgN/A
3:30 PM93 °FPassing clouds.14 mph34%29.74 "HgN/A
2:30 PM93 °FPassing clouds.7 mph32%29.77 "HgN/A
1:30 PM93 °FPassing clouds.5 mph34%29.80 "HgN/A
12:30 PM91 °FSunny.7 mph34%29.80 "Hg10 mi
11:30 AM90 °FSunny.7 mph38%29.83 "Hg10 mi
Weather by CustomWeather, © 2014

See weather overviewHow to use our weather pages